www.pogodaiklimat.ru

Погода и климат >> Архив погоды >> Великобритания >> Мона


ПОГОДА в Моне

  • Прогноз погоды в Моне
  • Монитор погоды в Моне

АРХИВ ПОГОДЫ в Моне

Время (UTC), дата Ветер
(напр.,м/с)
 
Видим.   Явления Облачность Т
(С)
Тd
(С)
f
(%)
Тe
(С)
Тes
(С)
Комфортность P
(гПа)
Po
(гПа)
Тmin
(С)
Tmax
(С)
R
(мм)
R24
(мм)
S
(см)
10 16.07 ЮЗ 6 11 км н/о +19.8 +13.5 67 +21 +21 комфорт 1019.8 1012.7
11 16.07 ЮЗ 7 11 км н/о +19.8 +13.2 66 +21 +21 комфорт 1019.7 1012.6
12 16.07 ЮЗ 7 11 км н/о +20.4 +13.9 66 +22 +22 комфорт 1019.4 1012.3
13 16.07 ЮЗ 6 12 км н/о +20.2 +13.0 63 +22 +22 комфорт 1019.3 1012.2
14 16.07 ЮЗ 6 13 км н/о +20.2 +13.1 64 +22 +22 комфорт 1019.1 1012.0
15 16.07 ЮЗ 6 13 км н/о +20.0 +12.6 62 +21 +21 комфорт 1018.8 1011.7
16 16.07 ЮЗ 6 13 км н/о +19.3 +13.4 69 +20 +20 1018.5 1011.4
17 16.07 ЮЗ 7 14 км н/о +19.8 +12.2 62 +21 +21 комфорт 1018.2 1011.1
18 16.07 ЮЗ 6 12 км н/о +18.7 +12.3 66 +19 +19 1018.0 1010.9 +21.0
19 16.07 ЮЗ 6 9000 м н/о +17.1 +13.8 81 +16 +16 1017.9 1010.8
20 16.07 ЮЗ 5 10 км н/о +16.0 +13.1 83 +15 +15 1017.7 1010.5
21 16.07 Ю 4 9000 м н/о +14.7 +12.5 87 +13 +13 1017.8 1010.6
22 16.07 Ю 4 8000 м н/о +14.6 +12.8 89 +13 +13 1017.5 1010.3
23 16.07 Ю 4 9000 м н/о +14.8 +13.1 90 +14 +14 1017.2 1009.9
00 17.07 Ю 4 9000 м н/о +15.0 +13.5 91 +14 +14 1016.8 1009.6
01 17.07 Ю 6 8000 м н/о +15.9 +14.3 90 +14 +14 1016.6 1009.4
02 17.07 Ю 6 7000 м н/о +15.6 +14.1 91 +14 +14 1015.8 1008.6
03 17.07 Ю 6 7000 м н/о +15.6 +14.2 91 +14 +14 1015.2 1008.1
04 17.07 Ю 5 7000 м н/о +15.4 +14.1 92 +14 +14 1014.7 1007.6
05 17.07 Ю 5 8000 м н/о +15.6 +14.2 91 +14 +14 1014.2 1007.0
06 17.07 Ю 7 9000 м н/о +16.1 +14.2 88 +15 +15 1013.9 1006.7 +14.5
07 17.07 Ю 8 9000 м н/о +16.5 +14.2 86 +15 +15 1013.7 1006.6
08 17.07 Ю 9 10 км н/о +17.1 +14.7 86 +16 +16 1013.6 1006.5
09 17.07 ЮЗ 9 11 км н/о +17.1 +13.4 79 +16 +16 1013.5 1006.4
10 17.07 ЮЗ 9
{13}
11 км н/о +17.7 +14.3 80 +17 +17 1013.3 1006.2
11 17.07 ЮЗ 10
{14}
11 км н/о +19.3 +15.1 77 +20 +20 1013.0 1005.9
12 17.07 ЮЗ 11
{14}
10 км н/о +17.4 +14.0 80 +16 +16 1012.6 1005.5
13 17.07 ЮЗ 10
{15}
9000 м н/о +17.5 +15.1 86 +16 +16 1012.2 1005.1
14 17.07 ЮЗ 12
{16}
9000 м н/о +16.3 +14.1 87 +14 +14 1011.8 1004.7
15 17.07 Ю 9
{15}
11 км н/о +15.3 +13.4 88 +13 +13 1011.7 1004.5
16 17.07 Ю 8
{14}
3200 м н/о +15.0 +14.3 96 +13 +13 1010.9 1003.8
17 17.07 Ю 9 9000 м н/о +16.0 +14.8 93 +14 +14 1009.9 1002.8
18 17.07 Ю 10
{14}
9000 м н/о +15.6 +14.6 94 +13 +13 1009.5 1002.3 +19.6 0.8
19 17.07 Ю 10
{13}
2900 м н/о +15.4 +14.3 93 +13 +13 1009.1 1002.0
20 17.07 Ю 9
{13}
6000 м н/о +15.1 +14.6 97 +13 +13 1008.5 1001.4
21 17.07 Ю 9
{13}
6000 м н/о +15.1 +14.7 97 +13 +13 1008.5 1001.3
22 17.07 ЮЗ 8 6000 м н/о +15.6 +15.2 97 +14 +14 1008.1 1001.0
23 17.07 З 5 6000 м н/о +14.9 +14.4 97 +13 +13 1008.1 1000.9
00 18.07 СЗ 5 5000 м н/о +13.9 +13.0 94 +12 +12 1008.5 1001.3 1
01 18.07 ЮЗ 2 13 км н/о +14.0 +13.2 95 +13 +13 1008.8 1001.7
02 18.07 З 2 13 км н/о +14.0 +13.2 95 +13 +13 1008.6 1001.4
03 18.07 ЮЗ 3 9000 м н/о +13.8 +13.1 96 +13 +13 1008.4 1001.2
04 18.07 ЮЗ 3 8000 м н/о +12.7 +12.0 96 +11 +11 1008.5 1001.3
05 18.07 ЮЗ 4 10 км н/о +13.3 +12.4 94 +12 +12 1008.7 1001.6
06 18.07 ЮЗ 3 11 км н/о +13.8 +12.7 93 +13 +13 1008.8 1001.7 +12.6 1
07 18.07 ЮЗ 4 12 км н/о +14.7 +13.0 90 +14 +14 1009.1 1001.9
08 18.07 ЮЗ 5 12 км н/о +14.8 +12.6 87 +13 +13 1009.3 1002.1
09 18.07 ЮЗ 6 12 км н/о +15.3 +13.0 86 +14 +14 1009.3 1002.2
10 18.07 ЮЗ 7 12 км н/о +16.5 +12.8 79 +15 +15 1009.5 1002.3
11 18.07 ЮЗ 7 15 км н/о +16.9 +12.0 73 +16 +16 1009.6 1002.5
12 18.07 ЮЗ 7 14 км н/о +18.1 +13.4 74 +17 +17 1009.9 1002.8
13 18.07 ЮЗ 8 15 км н/о +18.8 +12.8 68 +19 +19 1010.0 1002.9
14 18.07 ЮЗ 8 16 км н/о +19.3 +13.0 67 +20 +20 1009.9 1002.9
15 18.07 ЮЗ 8 15 км н/о +18.3 +12.7 70 +18 +18 1009.9 1002.8
16 18.07 ЮЗ 9 14 км н/о +18.3 +12.6 69 +18 +18 1009.8 1002.7
17 18.07 ЮЗ 8
{13}
11 км н/о +16.8 +12.9 78 +15 +15 1009.8 1002.7
18 18.07 ЮЗ 8 11 км н/о +16.9 +12.7 76 +16 +16 1009.8 1002.7 +19.4
19 18.07 ЮЗ 8 10 км н/о +15.8 +12.8 82 +14 +14 1009.9 1002.8
20 18.07 ЮЗ 8 10 км н/о +15.7 +12.9 83 +14 +14 1009.9 1002.8
21 18.07 ЮЗ 6 8000 м н/о +14.5 +12.8 90 +13 +13 1010.1 1003.0
22 18.07 ЮЗ 6 9000 м н/о +14.7 +13.0 90 +13 +13 1010.2 1003.1
23 18.07 ЮЗ 4 9000 м н/о +14.8 +13.2 90 +14 +14 1010.2 1003.1
00 19.07 ЮЗ 5 8000 м н/о +14.6 +13.5 93 +13 +13 1010.0 1002.9
01 19.07 Ю 5 10 км н/о +14.8 +13.4 91 +13 +13 1010.1 1002.9
02 19.07 Ю 5 10 км н/о +15.1 +13.7 91 +14 +14 1009.7 1002.5
03 19.07 Ю 6 11 км н/о +15.4 +13.9 91 +14 +14 1009.2 1002.0
04 19.07 ЮЗ 5 7000 м н/о +15.0 +14.0 94 +13 +13 1008.7 1001.5
05 19.07 Ю 4 3600 м н/о +14.4 +13.8 96 +13 +13 1008.2 1001.0
06 19.07 Ю 3 2800 м н/о +14.4 +13.8 96 +13 +13 1007.9 1000.8 +14.2 3
07 19.07 ЮВ 4 4400 м н/о +14.5 +14.1 97 +13 +13 1007.0 999.9
08 19.07 ЮВ 3 5000 м н/о +14.7 +14.3 97 +14 +14 1006.2 999.1
09 19.07 ЮВ 3 2900 м н/о +15.0 +14.7 98 +14 +14 1005.8 998.7
10 19.07 В 4 3700 м н/о +15.1 +14.5 96 +14 +14 1005.2 998.0
11 19.07 В 3 4900 м н/о +16.1 +15.8 98 +16 +16 1004.3 997.2
12 19.07 Ю 8 12 км н/о +18.7 +18.1 96 +19 +19 1004.0 997.0 8
13 19.07 Ю 9 13 км н/о +18.1 +17.8 98 +17 +17 1003.6 996.6
14 19.07 ЮЗ 10
{15}
10 км н/о +17.9 +17.2 96 +17 +17 1003.3 996.3
15 19.07 ЮЗ 11
{16}
8000 м н/о +18.3 +16.8 91 +18 +18 1003.5 996.5
17 19.07 Ю 12
{17}
9000 м н/о +17.9 +15.8 88 +16 +16 1002.7 995.6
18 19.07 ЮЗ 11
{19}
7000 м н/о +17.3 +15.6 90 +16 +16 1002.3 995.2 +19.1 8
19 19.07 Ю 11
{16}
7000 м н/о +17.2 +15.5 90 +16 +16 1002.5 995.5
20 19.07 Ю 11
{16}
7000 м н/о +17.1 +15.5 90 +15 +15 1002.4 995.4
21 19.07 Ю 11
{16}
8000 м н/о +16.7 +15.1 90 +15 +15 1002.4 995.3
22 19.07 Ю 11
{15}
7000 м н/о +16.7 +15.3 91 +15 +15 1001.9 994.8
23 19.07 Ю 11
{15}
7000 м н/о +16.2 +15.5 96 +14 +14 1001.2 994.2
00 20.07 Ю 10
{15}
5000 м н/о +16.2 +15.4 95 +14 +14 1000.9 993.8 0.4
01 20.07 Ю 9
{14}
7000 м н/о +15.9 +15.1 95 +14 +14 1000.8 993.7
02 20.07 Ю 8
{13}
8000 м н/о +15.8 +14.9 94 +14 +14 1000.3 993.2
03 20.07 Ю 9
{13}
11 км н/о +15.5 +14.1 91 +13 +13 999.8 992.8
04 20.07 Ю 9
{13}
2400 м н/о +14.9 +13.8 93 +13 +13 999.2 992.1
05 20.07 ЮЗ 7 2500 м н/о +14.5 +14.1 97 +12 +12 999.3 992.2
06 20.07 З 6 8000 м н/о +14.5 +14.0 97 +13 +13 1000.0 992.9 +14.4 1
07 20.07 З 6 9000 м н/о +15.1 +14.6 97 +13 +13 1001.2 994.1
08 20.07 З 5 10 км н/о +15.4 +14.8 96 +14 +14 1002.3 995.2
09 20.07 СЗ 6 5000 м н/о +15.3 +14.3 94 +14 +14 1003.6 996.5
10 20.07 З 5 2900 м н/о +14.8 +14.1 96 +13 +13 1005.0 997.8
11 20.07 СЗ 6 12 км н/о +15.3 +13.3 88 +14 +14 1006.1 999.0
12 20.07 СЗ 7 14 км н/о +16.6 +13.1 80 +15 +15 1007.1 1000.0 0.2
13 20.07 З 6 18 км н/о +17.9 +13.0 73 +17 +17 1008.1 1001.1
14 20.07 З 7 17 км н/о +18.1 +10.8 62 +18 +18 1008.9 1001.8
15 20.07 З 5 17 км н/о +18.5 +12.3 67 +19 +19 1009.7 1002.6
16 20.07 З 5 17 км н/о +17.6 +11.9 69 +17 +17 1010.2 1003.1
17 20.07 ЮЗ 5 16 км н/о +17.0 +12.0 72 +16 +16 1011.1 1004.0
18 20.07 ЮЗ 4 16 км н/о +16.3 +12.3 77 +16 +16 1011.7 1004.6 +19.5 0.2
19 20.07 ЮЗ 5 16 км н/о +16.2 +12.3 78 +15 +15 1012.3 1005.1
20 20.07 ЮЗ 4 17 км н/о +15.5 +12.6 83 +14 +14 1013.0 1005.9
21 20.07 ЮЗ 4 14 км н/о +15.0 +12.8 87 +14 +14 1013.7 1006.5
22 20.07 ЮЗ 2 11 км н/о +14.4 +12.7 90 +14 +14 1014.1 1006.9
23 20.07 ЮЗ 3 12 км н/о +14.6 +12.9 90 +14 +14 1014.4 1007.3
00 21.07 ЮЗ 3 13 км н/о +14.9 +13.0 88 +14 +14 1014.9 1007.7
01 21.07 ЮЗ 3 12 км н/о +14.2 +12.8 91 +13 +13 1014.9 1007.7
02 21.07 ЮЗ 4 9000 м н/о +14.0 +13.3 96 +12 +12 1015.1 1007.9
03 21.07 ЮЗ 4 8000 м н/о +14.0 +13.4 96 +12 +12 1015.4 1008.2
04 21.07 ЮЗ 4 5000 м н/о +13.2 +12.8 97 +12 +12 1015.6 1008.3
05 21.07 ЮЗ 3 5000 м н/о +12.2 +11.9 98 +11 +11 1015.8 1008.6
06 21.07 ЮЗ 5 8000 м н/о +14.6 +14.2 97 +13 +13 1016.2 1009.0 +11.7
07 21.07 ЮЗ 6 10 км н/о +15.7 +14.0 90 +14 +14 1016.4 1009.2
08 21.07 Ю 6 12 км н/о +16.2 +13.2 82 +15 +15 1016.9 1009.8
09 21.07 ЮЗ 7 10 км н/о +15.7 +14.3 91 +14 +14 1017.4 1010.2
10 21.07 ЮЗ 10
{13}
13 км н/о +17.7 +14.1 79 +16 +16 1017.5 1010.4
11 21.07 ЮЗ 11
{14}
12 км н/о +17.7 +14.6 82 +16 +16 1017.7 1010.5
12 21.07 ЮЗ 11
{15}
12 км н/о +18.7 +15.3 81 +18 +18 1017.6 1010.5
13 21.07 Ю 12
{15}
12 км н/о +18.6 +15.1 80 +18 +18 1017.5 1010.4
14 21.07 Ю 11
{15}
13 км н/о +18.5 +14.5 78 +18 +18 1017.2 1010.1
15 21.07 Ю 12
{16}
13 км н/о +18.7 +13.4 71 +18 +18 1016.5 1009.4
16 21.07 Ю 13
{17}
14 км н/о +19.8 +14.0 69 +21 +21 комфорт 1016.2 1009.1
17 21.07 ЮЗ 12
{18}
12 км н/о +18.4 +14.0 76 +18 +18 1016.0 1008.8
18 21.07 Ю 12-17
{17}
8000 м н/о +17.4 +15.3 87 +16 +16 1015.5 1008.4 +19.8
19 21.07 Ю 12
{19}
3300 м н/о +16.7 +15.3 91 +15 +15 1015.1 1008.0
20 21.07 Ю 12
{17}
2400 м н/о +16.6 +15.7 94 +15 +15 1014.0 1006.9
21 21.07 Ю 14
{19}
3100 м н/о +16.7 +16.1 96 +14 +14 1014.3 1007.2
22 21.07 ЮЗ 14-19
{22}
1700 м н/о +16.9 +16.5 97 +15 +15 1014.8 1007.6
23 21.07 ЮЗ 13
{20}
2000 м н/о +16.9 +16.6 98 +15 +15 1014.8 1007.7
00 22.07 ЮЗ 13
{20}
2500 м н/о +17.1 +16.9 99 +15 +15 1014.8 1007.7 13
01 22.07 ЮЗ 13
{19}
1200 м н/о +17.1 +16.8 98 +15 +15 1014.8 1007.6
02 22.07 ЮЗ 12
{19}
1500 м н/о +16.8 +16.6 99 +15 +15 1014.9 1007.7
03 22.07 ЮЗ 12
{17}
3700 м н/о +17.0 +16.8 99 +15 +15 1015.1 1007.9
04 22.07 Ю 12
{19}
5000 м н/о +17.0 +16.8 99 +15 +15 1015.2 1008.1
05 22.07 Ю 12
{18}
7000 м н/о +16.9 +16.5 97 +15 +15 1015.7 1008.5
06 22.07 Ю 12-18
{18}
10 км н/о +17.4 +16.3 93 +16 +16 1016.2 1009.0 +16.6 14
07 22.07 ЮЗ 12
{17}
10 км н/о +17.7 +16.3 92 +16 +16 1016.9 1009.8
08 22.07 ЮЗ 13
{18}
9000 м н/о +18.1 +16.8 92 +17 +17 1017.0 1009.9
09 22.07 ЮЗ 13-19
{19}
9000 м н/о +18.3 +16.7 90 +17 +17 1017.6 1010.5
10 22.07 ЮЗ 11-17
{17}
9000 м н/о +18.1 +16.8 92 +17 +17 1018.0 1010.9
11 22.07 ЮЗ 13
{18}
11 км н/о +18.2 +16.7 91 +17 +17 1018.5 1011.4
12 22.07 ЮЗ 12-17
{18}
15 км н/о +19.1 +16.7 86 +20 +20 1018.5 1011.4 0.2
13 22.07 ЮЗ 12
{18}
17 км н/о +19.8 +17.1 84 +21 +21 комфорт 1018.3 1011.2
14 22.07 Ю 12
{18}
15 км н/о +21.0 +17.4 80 +24 +24 комфорт 1018.3 1011.3
15 22.07 ЮЗ 13
{17}
18 км н/о +21.0 +16.7 76 +24 +24 комфорт 1018.7 1011.6
16 22.07 ЮЗ 13
{18}
17 км н/о +20.6 +16.9 79 +23 +23 комфорт 1018.8 1011.7
17 22.07 ЮЗ 13
{18}
15 км н/о +19.7 +16.3 81 +21 +21 комфорт 1018.6 1011.5
18 22.07 ЮЗ 12
{16}
15 км н/о +19.4 +16.0 81 +20 +20 1018.5 1011.4 +21.9 0.2
20 22.07 ЮЗ 11
{16}
12 км н/о +17.8 +15.7 88 +16 +16 1018.4 1011.3
21 22.07 Ю 10
{14}
12 км н/о +17.2 +15.8 91 +16 +16 1018.9 1011.7
22 22.07 ЮЗ 9
{15}
10 км н/о +17.6 +16.2 91 +16 +16 1019.7 1012.5
23 22.07 Ю 8 10 км н/о +17.5 +16.1 91 +16 +16 1019.8 1012.6
00 23.07 ЮЗ 8 11 км н/о +17.3 +15.9 91 +16 +16 1019.5 1012.3
01 23.07 ЮЗ 8 12 км н/о +17.1 +15.7 91 +16 +16 1019.3 1012.2
02 23.07 Ю 8 14 км н/о +17.2 +15.6 90 +16 +16 1019.0 1011.9
03 23.07 ЮЗ 8 13 км н/о +17.1 +15.8 92 +16 +16 1018.7 1011.6
04 23.07 ЮЗ 5 9000 м н/о +16.7 +15.8 94 +16 +16 1018.5 1011.3
05 23.07 Ю 7 11 км н/о +16.9 +15.8 93 +16 +16 1018.3 1011.1
06 23.07 Ю 5 13 км н/о +17.2 +16.1 93 +16 +16 1018.3 1011.1 +16.6
07 23.07 Ю 6 14 км н/о +17.9 +16.1 89 +17 +17 1018.2 1011.0
08 23.07 Ю 6 11 км н/о +17.9 +16.3 90 +17 +17 1018.2 1011.1
09 23.07 Ю 6 16 км н/о +18.9 +16.9 88 +20 +20 1017.8 1010.7
10 23.07 Ю 6 17 км н/о +20.2 +16.6 80 +23 +23 комфорт 1017.6 1010.5

 

Местоположение метеостанции Мона (Великобритания): широта 53.25 долгота -4.37 высота над уровнем моря 61 м.

В архиве по умолчанию представлена погода в Моне за последнюю неделю. Архивные данные за месяц целиком и за предыдущие месяцы, начиная с января 2011 года, Вы можете получить, выбрав интересующий диапазон дат из раскрывающегося списка и нажав кнопку "Ввод!".


*Определитесь, кто Вы:
робот инопланетянин человек

Внимание! Время в таблицах - всемирное. Для получения местного времени необходимо прибавить поправку, которая равна 0 ч.

Смотрите также архив погоды в соседних городах и на ближайших метеорологических станциях:

Погода в Вэлли (Великобритания) (11 км)
Погода в Кейпл Кериг (Великобритания) (34 км)
Погода в Абердароне (Великобритания) (58 км)
Погода в Риле (Великобритания) (58 км)
Погода в Бала (Великобритания) (66 км)
Погода на Озере Вирнви (Великобритания) (82 км)
Погода в Кросби (Великобритания) (91 км)
Погода в Гавардене (Великобритания) (93 км)
Погода на Острове Мэн (Великобритания) (94 км)
Погода в Троскоеде (Великобритания) (104 км)

Пояснения к столбцам:

Ветер - указаны скорость ветра в м/с - средняя за 10 мин, порывы в срок и между сроками (в фигурных скобках) и направление, откуда дует ветер: С - северный, СВ - северо-восточный, В - восточный, ЮВ - юго-восточный, Ю - южный, ЮЗ - юго-западный, З - западный, СЗ - северо-западный.
Видимость - горизонтальная дальность видимости в метрах или километрах. При видимости от 1 до 10 км при отсутствии осадков обычно наблюдается дымка, при ухудшении видимости до 1 км и менее - туман. В сухую погоду видимость может ухудшаться дымом, пылью или мглою.
Явления - указаны атмосферные явления, наблюдавшиеся в срок или в последний час перед сроком; фигурными скобками обозначены явления, наблюдавшиеся между сроками (за 1-3 часа до срока); квадратными скобками обозначены град или гололедные отложения с указанием их диаметра в мм.
Облачность - указаны через наклонную черту общая и нижняя облачность в баллах и высота нижней границы облаков в метрах; квадратными скобками обозначены формы облаков: Ci - перистые, Cs - перисто-слоистые, Cc - перисто-кучевые, Ac - высококучевые, As - высокослоистые, Sc - слоисто-кучевые, Ns - слоисто-дождевые, Cu - кучевые, Cb - кучево-дождевые. Подробнее классификацию облаков см. в Атласе облаков (PDF).
T - Температура воздуха - температура, измеренная на высоте 2 м над землей.
Td - Температура точки росы - температура, при понижении до которой содержащийся в воздухе водяной пар достигнет насыщения.
f - Относительная влажность воздуха - влажноcть воздуха, измеренная на высоте 2 м над землей.
Te - Эффективная температура - температура, которую ощущает одетый по сезону человек в тени. Характеристика душности погоды. При расчете учитывается влияние влажности воздуха и скорости ветра на теплоощущения человека.
Tes - Эффективная температура на солнце - температура, которую ощущает человек, с поправкой на солнечный нагрев. Характеристика знойности погоды. Зависит от высоты солнца над горизонтом, облачности и скорости ветра. Ночью, в пасмурную погоду, а также при ветре 12 м/с и более поправка равна нулю.
P - Атмосферное давление - приведенное к уровню моря атмосферное давление.
Po - Атмосферное давление - измеренное на уровне метеостанции атмосферное давление.
Tmin - Минимальная температура - минимум температуры воздуха на высоте 2 м над землей.
Tmax - Максимальная температура - максимум температуры воздуха на высоте 2 м над землей.
R - Количество осадков - Количество выпавших осадков за период времени, мм. При наведении курсора мыши на число - период времени, за который выпало указанное количество осадков.
R24 - Количество осадков - Количество выпавших осадков за 24 часа, мм.
S - Снежный покров - Высота снежного покрова, см. При наведении курсора мыши на число - состояние снежного покрова и степень покрытия местности в баллах.